Regional Weather Roundup
Issued by NWS Glasgow, MT

Home | Current Version | Previous Version | Text Only | Print | Product List | Glossary On
Versions: 1 2 3 4 5 6 7 8 9 10 11 12 13 14 15 16 17 18 19 20 21 22 23 24 25 26 27 28 29 30 31 32 33 34 35 36 37 38 39 40 41 42 43 44 45 46 47 48 49 50
000
ASUS45 KGGW 061815
RWRGGW
HOURLY REGIONAL WEATHER ROUNDUP FOR NORTHEAST MONTANA
NATIONAL WEATHER SERVICE GLASGOW MONTANA
1100 AM MST SAT FEB 06 2016

NOTE: "FAIR" INDICATES FEW OR NO CLOUDS BELOW 12,000 FEET WITH NO
SIGNIFICANT WEATHER AND/OR OBSTRUCTIONS TO VISISBILITY.

NORTHEAST MONTANA


CITY           SKY/WX    TMP DP  RH WIND       PRES   REMARKS
GLASGOW        MOSUNNY   42  28  57 W23G35    29.74R
6HR MIN TEMP:  37; 6HR MAX TEMP:  43; 6HR PCP: TRACE;

PLENTYWOOD       N/A     43  27  53 W10G23      N/A
WOLF POINT     SUNNY     46  30  53 W22G33    29.72S
JORDAN           N/A     45  26  47 W29G45    29.82R
WINNETT          N/A     47  22  37 CALM        N/A
SIDNEY         MOSUNNY   48  27  43 W22G30    29.72F
GLENDIVE       CLOUDY    48  25  40 W25G31    29.79F
MALTA            N/A     48  23  37 W22G41      N/A

FORT PECK REPORTS


CITY           SKY/WX    TMP DP  RH WIND       PRES   REMARKS
FORT PECK        N/A     45  30  57 W22G39      N/A
THE PINES        N/A     51  25  36 W14G31      N/A

SOUTHEAST MONTANA


CITY           SKY/WX    TMP DP  RH WIND       PRES   REMARKS
BILLINGS       CLOUDY    47  23  38 NW31G48   29.98R SQUALL
MILES CITY     SUNNY     53  22  29 W24G35    29.84F
BAKER          CLOUDY    46  20  35 W14       29.83F
LIVINGSTON     CLOUDY    44  15  31 W23G38    30.01R

CENTRAL MONTANA


CITY           SKY/WX    TMP DP  RH WIND       PRES   REMARKS
HAVRE          SUNNY     46  20  35 W48G64    29.78R
LEWISTOWN      LGT RAIN  41  17  38 W38G60    29.90F
GREAT FALLS    SUNNY     41  20  43 W41G55    29.94R
CUT BANK       MOSUNNY   40  18  41 W47G63    29.83R
HELENA         MOSUNNY   39  19  44 W20G39    30.13R
BUTTE          SNOW      29  26  89 N12       30.19R VSB 1/4
BOZEMAN        CLOUDY    42  22  44 SW23G30   30.09R

WESTERN MONTANA


CITY           SKY/WX    TMP DP  RH WIND       PRES   REMARKS
MISSOULA       CLOUDY    37  26  64 W9        30.29R
KALISPELL      NOT AVBL

NORTH DAKOTA


CITY           SKY/WX    TMP DP  RH WIND       PRES   REMARKS
WILLISTON      PTSUNNY   45  28  51 SW12G17   29.68F
DICKINSON      CLOUDY    46  22  38 W21       29.75F
MINOT          CLOUDY    48  26  42 SW20G28   29.63F
BISMARCK       CLOUDY    47  27  45 SW6       29.77F

SOUTHERN SASKATCHEWAN


CITY           SKY/WX    TMP DP  RH WIND       PRES   REMARKS
REGINA         MOSUNNY   45  30  57 SW16      29.48F
ESTEVAN        PTSUNNY   41  30  65 SW17      29.60S
SWIFT CURRENT  LGT RAIN  37  34  87 W32G43    29.56R





USA.gov is the U.S. government's official web portal to all federal, state and local government web resources and services.